Location: Alando
(42.3054°N, 9.2895°E)
Time: 12:01:36
(UTC+00:00)

Cosmos 1656 Rocket - Pass Details

Date: 09 April 2020
Orbit: 796 x 846 km, 71.1° (Epoch: 06 June)

Event Time Altitude Azimuth Distance (km) Brightness Sun altitude
Rises 19:06:07 0° 331° (NNW) 3,402 7.8 -12.8°
Reaches altitude 10° 19:08:38 10° 327° (NNW) 2,458 7.0 -13.2°
Maximum altitude 19:14:06 53° 252° (WSW) 1,010 4.4 -14.2°
Drops below altitude 10° 19:19:27 10° 176° (S) 2,411 5.8 -15.0°
Enters shadow 19:21:06 - 173° (S) 3,029 6.3 -15.3°
